Location: Unspecified
(0.0000°N, 0.0000°E)
Time: 20:50:03
(UTC+00:00)

A-11 Canister half - All Passes

Search period start: 14 July 2020 00:00
Search period end: 24 July 2020 00:00
Orbit: 1527 x 1682 km, 47.3° (Epoch: 13 July)

Date Brightness Start Highest point End Pass type
(mag) Time Alt. Az. Time Alt. Az. Time Alt. Az.
14 Jul - 03:20:37 10° NNW 03:29:31 50° NE 03:38:27 10° ESE visible
14 Jul - 05:26:15 10° WNW 05:34:18 33° SW 05:42:32 10° SSE visible
14 Jul - 14:08:43 10° S 14:16:08 23° SE 14:23:30 10° E daylight
14 Jul - 16:11:11 10° SW 16:21:21 78° NW 16:31:23 10° NE daylight
14 Jul - 18:21:36 10° WNW 18:26:45 15° NW 18:31:52 10° NNW visible
15 Jul - 02:59:05 10° NNW 03:07:53 47° NE 03:16:42 10° ESE visible
15 Jul - 05:04:25 10° WNW 05:12:39 36° SW 05:21:04 10° SSE visible
15 Jul - 13:47:21 10° S 13:54:25 21° SE 14:01:27 10° E daylight
15 Jul - 15:49:29 10° SW 15:59:41 83° NW 16:09:46 10° NE daylight
15 Jul - 17:59:17 10° W 18:05:01 16° NW 18:10:43 10° N daylight
16 Jul - 02:37:34 10° NNW 02:46:15 43° NE 02:54:55 10° ESE visible
16 Jul - 04:42:36 10° WNW 04:51:01 39° SW 04:59:34 10° SSE visible
16 Jul - 13:26:03 10° S 13:32:42 19° SE 13:39:20 10° E daylight
16 Jul - 15:27:48 10° SW 15:38:00 88° NW 15:48:07 10° NE daylight
16 Jul - 17:37:02 10° W 17:43:18 18° NW 17:49:30 10° N daylight
17 Jul - 02:16:05 10° NNW 02:24:37 40° NE 02:33:08 10° ESE visible
17 Jul - 04:20:49 10° WNW 04:29:22 42° SW 04:38:03 10° SSE visible
17 Jul - 13:04:46 10° S 13:10:59 18° SE 13:17:10 10° E daylight
17 Jul - 15:06:09 10° SW 15:16:20 87° SE 15:26:27 10° NE daylight
17 Jul - 17:14:53 10° W 17:21:34 20° NW 17:28:14 10° N daylight
18 Jul - 01:54:35 10° NNW 02:02:59 37° NE 02:11:20 10° ESE visible
18 Jul - 03:59:03 10° WNW 04:07:44 45° SW 04:16:33 10° SSE visible
18 Jul - 12:43:33 10° S 12:49:15 16° SE 12:54:55 10° E daylight
18 Jul - 14:44:29 10° SW 14:54:40 82° SE 15:04:47 10° NE daylight
18 Jul - 16:52:46 10° W 16:59:51 21° NW 17:06:56 10° N daylight
19 Jul - 01:33:06 10° NNW 01:41:20 35° NE 01:49:30 10° ESE visible
19 Jul - 03:37:17 10° WNW 03:46:06 48° SW 03:55:01 10° SSE visible
19 Jul - 12:22:24 10° SSE 12:27:31 15° SE 12:32:36 10° ESE daylight
19 Jul - 14:22:51 10° SW 14:32:59 77° SE 14:43:06 10° NE daylight
19 Jul - 16:30:42 10° W 16:38:09 23° NW 16:45:35 10° N daylight
20 Jul - 01:11:39 10° N 01:19:42 32° NE 01:27:39 10° ESE visible
20 Jul - 03:15:33 10° NW 03:24:28 52° SW 03:33:29 10° SSE visible
20 Jul - 12:01:22 10° SSE 12:05:46 13° SE 12:10:09 10° ESE daylight
20 Jul - 14:01:14 10° SSW 14:11:20 72° SE 14:21:24 10° NE daylight
20 Jul - 16:08:41 10° W 16:16:27 25° NW 16:24:12 10° N daylight
21 Jul - 00:50:12 10° N 00:58:02 30° NE 01:05:48 10° ESE visible
21 Jul - 02:53:49 10° NW 03:02:51 56° SW 03:11:56 10° SSE visible
21 Jul - 11:40:30 10° SSE 11:44:01 12° SE 11:47:32 10° ESE daylight
21 Jul - 13:39:37 10° SSW 13:49:39 68° SE 13:59:42 10° NE daylight
21 Jul - 15:46:40 10° WSW 15:54:44 27° NW 16:02:47 10° N daylight
22 Jul - 00:28:46 10° N 00:36:23 28° NE 00:43:55 10° ESE visible
22 Jul - 02:32:06 10° NW 02:41:13 60° SW 02:50:22 10° SSE visible
22 Jul - 11:20:00 10° SSE 11:22:16 11° SE 11:24:31 10° ESE daylight
22 Jul - 13:18:01 10° SSW 13:27:59 63° SE 13:37:58 10° NE daylight
22 Jul - 15:24:43 10° WSW 15:33:03 29° NW 15:41:22 10° N daylight
23 Jul - 00:07:22 10° N 00:14:44 26° NE 00:22:00 10° E visible
23 Jul - 02:10:24 10° NW 02:19:35 64° SW 02:28:48 10° SSE night (unlit)
23 Jul - 12:56:26 10° SSW 13:06:19 59° SE 13:16:14 10° NE daylight
23 Jul - 15:02:47 10° WSW 15:11:21 31° NW 15:19:55 10° N daylight
